This is the latest recevied weather packets stored in our database for station/object WX5KDM. If no packets are shown the sender has not sent any weather packets the latest 10 day(s).
| Time | Temp. | Humidity | Pressure | Rain* | Wind** | Luminosity | Snow |
|---|---|---|---|---|---|---|---|
| 1777853715 | 19.44° C | 48% | 1017.1 hPa | 0 mm | - | - | - |
| 1777853411 | 20° C | 46% | 1017.3 hPa | 0 mm | - | - | - |
| 1777853108 | 20.56° C | 45% | 1017.2 hPa | 0 mm | - | - | - |
| 1777852805 | 20.56° C | 45% | 1017.3 hPa | 0 mm | - | - | - |
| 1777852504 | 21.11° C | 43% | 1017.1 hPa | 0 mm | - | - | - |
| 1777852200 | 21.67° C | 39% | 1017.1 hPa | 0 mm | - | - | - |
| 1777851898 | 21.67° C | 39% | 1017.4 hPa | 0 mm | - | - | - |
| 1777851596 | 21.67° C | 40% | 1017.3 hPa | 0 mm | - | - | - |
| 1777851292 | 21.67° C | 36% | 1017.4 hPa | 0 mm | - | - | - |
| 1777850988 | 21.67° C | 41% | 1017.6 hPa | 0 mm | - | - | - |
| 1777850685 | 22.22° C | 40% | 1017.5 hPa | 0 mm | - | - | - |
| 1777850383 | 22.22° C | 38% | 1017.5 hPa | 0 mm | - | - | - |
| 1777850080 | 22.22° C | 37% | 1017.4 hPa | 0 mm | - | - | - |
| 1777849777 | 22.22° C | 35% | 1017.5 hPa | 0 mm | - | - | - |
| 1777849473 | 22.78° C | 35% | 1017.6 hPa | 0 mm | - | - | - |
| 1777849171 | 22.78° C | 36% | 1017.6 hPa | 0 mm | - | - | - |
| 1777848868 | 23.33° C | 39% | 1017.7 hPa | 0 mm | - | - | - |
| 1777848563 | 22.78° C | 39% | 1017.7 hPa | 0 mm | - | - | - |
| 1777848260 | 23.33° C | 37% | 1017.5 hPa | 0 mm | - | - | - |
| 1777847958 | 23.33° C | 39% | 1017.8 hPa | 0 mm | - | - | - |
| 1777847656 | 23.33° C | 38% | 1017.7 hPa | 0 mm | - | - | - |
| 1777847351 | 23.89° C | 39% | 1017.7 hPa | 0 mm | - | - | - |
| 1777847050 | 23.33° C | 38% | 1017.6 hPa | 0 mm | - | - | - |
| 1777846747 | 23.33° C | 38% | 1017.9 hPa | 0 mm | - | - | - |
| 1777846446 | 23.33° C | 35% | 1017.7 hPa | 0 mm | - | - | - |
* Rain latest hour (hover to see other rain measurements)
** Current wind speed in m/s (hover to see current wind gust speed)